Weather History for KABR - July, 2013

Change the Weather History Date:

Saturday, July 6, 2013

  Actual Average Record
Temperature  
Mean Temperature 77 °F 71 °F  
Max Temperature 85 °F 83 °F 115 °F (1936)
Min Temperature 68 °F 58 °F 42 °F (1942)
Degree Days  
Heating Degree Days 0 1  
Month to date heating degree days 0 6  
Since 1 June heating degree days 81 82  
Since 1 July heating degree days 0 6  
Cooling Degree Days 12 6  
Month to date cooling degree days 46 36  
Year to date cooling degree days 163 151  
Since 1 June cooling degree days 142 128  
Growing Degree Days 26 (Base 50)    
Moisture  
Dew Point 66 °F    
Average Humidity 74    
Maximum Humidity 93    
Minimum Humidity 55    
Precipitation  
Precipitation 0.11 in 0.11 in 1.26 in (1994)
Month to date precipitation 0.12 0.64  
Year to date precipitation 10.84 11.48  
Sea Level Pressure  
Sea Level Pressure 29.74 in    
Wind  
Wind Speed 6 mph (ENE)    
Max Wind Speed 16 mph    
Max Gust Speed 20 mph    
Visibility 10 miles    
Events Rain , Thunderstorm    
T = Trace of Precipitation, MM = Missing Value Source: NWS Daily Summary

Daily Weather History Graph

Daily Weather History Graph

Search for Another Location

Airport or City:

Trip Planner

Search our weather history database for the weather conditions in past years. The results will help you decide how hot, cold, wet, or windy it might be!

Date:

Astronomy

Jul. 06, 2013 Rise Set
Actual Time 5:52 AM CDT 9:24 PM CDT
Civil Twilight 5:15 AM CDT 10:01 PM CDT
Nautical Twilight 4:25 AM CDT 10:50 PM CDT
Astronomical Twilight 3:21 AM CDT 11:54 PM CDT
Moon 4:42 AM CDT (7/6) 8:03 PM CDT (7/6)
Length of Visible Light 16h 46m
Length of Day
15h 31m
Waning Crescent, 2% of the Moon is Illuminated
Jul 6
Waning Crescent
Jul 8
New
Jul 15
First Quarter
Jul 22
Full
Jul 29
Last Quarter

Hourly Weather History & Observations

Time (CDT) Temp. Heat Index Dew Point Humidity Pressure Visibility Wind Dir Wind Speed Gust Speed Precip Events Conditions
12:53 AM 73.0 °F - 64.9 °F 76% 29.74 in 10.0 mi East 4.6 mph - N/A   Mostly Cloudy
1:27 AM 73.4 °F - 66.2 °F 78% 29.77 in 10.0 mi East 3.5 mph - N/A Thunderstorm Mostly Cloudy
1:45 AM 71.6 °F - 66.2 °F 83% 29.81 in 10.0 mi WNW 13.8 mph - 0.00 in Rain Light Rain
1:53 AM 71.1 °F - 66.9 °F 87% 29.76 in 6.0 mi North 9.2 mph 19.6 mph 0.02 in Rain Rain
2:53 AM 70.0 °F - 66.9 °F 90% 29.74 in 9.0 mi ENE 8.1 mph - 0.02 in Rain Light Rain
3:53 AM 69.1 °F - 66.0 °F 90% 29.76 in 9.0 mi North 9.2 mph - 0.06 in Rain Light Rain
4:53 AM 68.0 °F - 66.0 °F 93% 29.75 in 10.0 mi ENE 3.5 mph - 0.00 in Rain Light Rain
5:53 AM 68.0 °F - 66.9 °F 96% 29.74 in 10.0 mi ESE 8.1 mph - 0.01 in   Scattered Clouds
6:53 AM 69.1 °F - 64.9 °F 87% 29.73 in 10.0 mi East 5.8 mph - N/A   Partly Cloudy
7:53 AM 70.0 °F - 66.0 °F 87% 29.70 in 9.0 mi ESE 8.1 mph - N/A   Clear
8:53 AM 72.0 °F - 64.9 °F 78% 29.72 in 10.0 mi SSE 5.8 mph - N/A   Clear
9:53 AM 73.9 °F - 64.0 °F 71% 29.72 in 10.0 mi SE 3.5 mph - N/A   Clear
10:53 AM 75.0 °F - 64.0 °F 69% 29.73 in 10.0 mi ESE 5.8 mph - N/A   Scattered Clouds
11:53 AM 77.0 °F - 64.0 °F 64% 29.73 in 10.0 mi SSE 8.1 mph - N/A   Mostly Cloudy
12:53 PM 79.0 °F - 64.0 °F 60% 29.73 in 10.0 mi SSE 8.1 mph - N/A   Scattered Clouds
1:53 PM 80.1 °F 81.9 °F 64.9 °F 60% 29.73 in 10.0 mi Variable 4.6 mph - N/A   Scattered Clouds
2:53 PM 82.9 °F 85.0 °F 66.0 °F 56% 29.73 in 10.0 mi South 8.1 mph - N/A   Mostly Cloudy
3:53 PM 82.9 °F 84.4 °F 64.0 °F 53% 29.73 in 10.0 mi Calm Calm - N/A   Scattered Clouds
4:53 PM 82.9 °F 85.0 °F 66.0 °F 56% 29.73 in 10.0 mi NNE 3.5 mph - N/A   Mostly Cloudy
5:53 PM 84.9 °F 88.2 °F 68.0 °F 57% 29.73 in 10.0 mi North 5.8 mph - N/A   Clear
6:53 PM 84.0 °F 87.0 °F 68.0 °F 58% 29.73 in 10.0 mi NNE 8.1 mph - N/A   Clear
7:53 PM 82.9 °F 85.8 °F 68.0 °F 60% 29.73 in 10.0 mi NE 8.1 mph - N/A   Scattered Clouds
8:53 PM 79.0 °F - 69.1 °F 72% 29.74 in 10.0 mi ENE 6.9 mph - N/A   Clear
9:53 PM 75.0 °F - 71.1 °F 87% 29.76 in 9.0 mi NE 3.5 mph - N/A   Clear
10:53 PM 73.9 °F - 71.1 °F 91% 29.77 in 8.0 mi NNE 6.9 mph - N/A   Clear
11:53 PM 72.0 °F - 70.0 °F 93% 29.78 in 7.0 mi Calm Calm - N/A   Clear